Weather Roundup
Issued by NWS

Home | Current Version | Previous Version | Text Only | Print | Product List | Glossary On
Versions: 1 2 3 4 5 6 7 8 9 10 11 12 13 14 15 16 17 18 19 20 21 22 23 24 25 26 27 28 29 30 31 32 33 34 35 36 37 38 39 40 41 42 43 44 45 46 47 48 49 50
068
NZUS93 KARX 040059
HRRWXR

CURRENT HOURLY OBSERVATIONS ACROSS
MUCH OF THE UPPER MISSISSIPPI VALLEY
NATIONAL WEATHER SERVICE LA CROSSE WI
700 PM CST SAT DEC 03 2016


...SOUTHEAST MINNESOTA...


CITY           SKY/WX    TMP DP  RH WIND       PRES   REMARKS
ROCHESTER      PTCLDY    30  25  81 SE8       30.19F WCI  22
ROCHESTER/MAYO CLOUDY    31  24  75 SE6       30.20F WCI  25
WINONA         CLOUDY    32  27  80 CALM      30.24F
AUSTIN         CLOUDY    30  28  93 SE5       30.18F WCI  25
ALBERT LEA     LGT SNOW  36  36 100 S7        30.17F WCI  30
DODGE CENTER   PTCLDY    30  27  86 SE7       30.18F WCI  23
PRESTON        CLOUDY    30  23  74 SE3       30.20F
OWATONNA       CLOUDY    32  27  80 SE7       30.18F WCI  26
FARIBAULT      CLOUDY    32  27  80 SE8       30.19F WCI  25
$$

...ELSEWHERE IN MINNESOTA...


CITY           SKY/WX    TMP DP  RH WIND       PRES   REMARKS
MINNEAPOLIS    CLOUDY    31  23  72 SE9       30.20F WCI  23
INTNL FALLS    CLOUDY    27  19  72 VRB7      30.13S WCI  19
DULUTH         CLOUDY    29  21  72 S7        30.17F WCI  22
RED WING       NOT AVBL
REDWOOD FALLS  LGT SNOW  33  30  88 SE13      30.11F FOG     WCI  24
MANKATO        LGT SNOW  33  30  88 SE10      30.17F FOG     WCI  25
WORTHINGTON    LGT SNOW  32  31  96 S14       30.09F FOG     WCI  22
FAIRMONT       LGT RAIN  33  32  96 S10       30.14F WCI  25
$$

...SOUTHWEST WISCONSIN...


CITY           SKY/WX    TMP DP  RH WIND       PRES   REMARKS
LA CROSSE      CLOUDY    34  26  72 E5        30.25F WCI  30
PRAIRIE DU CHI CLOUDY    33  26  73 CALM      30.25F
BOSCOBEL       CLOUDY    34  26  72 CALM      30.27F
LONE ROCK      NOT AVBL
PLATTEVILLE    PTCLDY    32  30  91 E5        30.24F WCI  28
FORT MC COY    CLOUDY    31  25  78 CALM      30.26F
MAUSTON-NEW LI CLOUDY    32  24  72 CALM      30.25F
VIROQUA        CLOUDY    31  27  85 SE3       30.24S
WIS DELLS      CLOUDY    31  23  72 CALM      30.26S
$$

...ELSEWHERE IN WISCONSIN...


CITY           SKY/WX    TMP DP  RH WIND       PRES   REMARKS
MILWAUKEE      CLOUDY    33  20  58 NW3       30.29S
MADISON        CLOUDY    32  23  69 CALM      30.27S
GREEN BAY      CLOUDY    33  25  72 CALM      30.27F
EAU CLAIRE     NOT AVBL
BLACK RVR FLS  CLOUDY    30  23  74 CALM      30.25F
MEDFORD        CLOUDY    28  21  77 S8        30.22S WCI  19
WAUSAU         CLOUDY    29  21  72 W5        30.23F WCI  24
WIS RAPIDS     CLOUDY    30  22  72 CALM      30.26F
MARSHFIELD     CLOUDY    28  21  75 CALM      30.23F
RICE LAKE      CLOUDY    30  22  72 S8        30.24S WCI  22
$$

...NORTHEAST IOWA...


CITY           SKY/WX    TMP DP  RH WIND       PRES   REMARKS
WATERLOO       CLOUDY    36  31  82 S8        30.22F WCI  30
DUBUQUE        CLOUDY    32  27  81 SE3       30.25S
DECORAH        CLOUDY    32  25  74 E5        30.21F WCI  27
MASON CITY     LGT SNOW  33  32  96 SE5       30.19F FOG     WCI  29
CHARLES CITY   CLOUDY    36  30  80 SE5       30.20F WCI  32
OELWEIN        CLOUDY    36  32  87 SE6       30.22F WCI  31
$$

...ELSEWHERE IN IOWA...


CITY           SKY/WX    TMP DP  RH WIND       PRES   REMARKS
DES MOINES     LGT RAIN  39  33  79 E6        30.20S WCI  35
IOWA CITY      CLOUDY    37  28  70 SE6       30.28S WCI  32
FORT DODGE     CLOUDY    34  30  86 SE5       30.17F WCI  30
MARSHALLTOWN   CLOUDY    35  32  88 SE7       30.21F WCI  29
CEDAR RAPIDS   CLOUDY    35  30  82 SE5       30.24F WCI  31
$$

...NORTHERN ILLINOIS...


CITY           SKY/WX    TMP DP  RH WIND       PRES   REMARKS
CHICAGO-OHARE  MOCLDY    31  24  75 S3        30.29F
CHICAGO-MIDWAY MOCLDY    33  23  66 S6        30.31S WCI  28
MOLINE         PTCLDY    34  26  72 S6        30.28R WCI  29
ROCKFORD       CLOUDY    33  26  75 SE3       30.31R
PEORIA         PTCLDY    34  28  79 E5        30.30S WCI  30
$$

NOTE: "FAIR" INDICATES FEW OR NO CLOUDS BELOW 12,000 FEET WITH NO
SIGNIFICANT WEATHER AND/OR OBSTRUCTIONS TO VISIBILITY. WIND
SPEEDS ARE IN MILES-PER-HOUR.




USA.gov is the U.S. government's official web portal to all federal, state and local government web resources and services.